Total_Precipitation_Accumulation
0.00 0.01 0.05 0.06 0.05 0.04 0.04 0.05 0.05 0.06 0.07 0.07 0.08 0.07 0.06 0.05 0.05 0.07 0.08 0.09 0.10 0.13 0.18 0.21 0.24 0.25 0.23 0.25 0.31 0.36 0.36 0.35 0.31 0.23 0.20 0.19 0.20 0.19 0.27 0.28 0.28 0.42 0.29
0.00 0.00 0.05 0.05 0.04 0.03 0.03 0.04 0.04 0.04 0.06 0.06 0.06 0.06 0.05 0.04 0.04 0.05 0.07 0.06 0.06 0.09 0.14 0.19 0.24 0.25 0.25 0.26 0.33 0.41 0.40 0.38 0.37 0.33 0.30 0.29 0.28 0.25 0.24 0.22 0.29 0.39 0.30
0.00 0.00 0.03 0.04 0.04 0.04 0.03 0.03 0.04 0.06 0.05 0.04 0.07 0.05 0.06 0.04 0.03 0.04 0.04 0.04 0.05 0.06 0.08 0.15 0.23 0.25 0.25 0.33 0.39 0.39 0.42 0.42 0.42 0.35 0.35 0.46 0.33 0.31 0.33 0.32 0.27 0.27 0.27
0.00 0.00 0.01 0.03 0.06 0.08 0.06 0.05 0.07 0.07 0.06 0.05 0.07 0.06 0.07 0.04 0.04 0.04 0.03 0.03 0.04 0.05 0.06 0.10 0.19 0.25 0.27 0.29 0.33 0.34 0.35 0.39 0.41 0.26 0.28 0.50 0.45 0.31 0.40 0.43 0.30 0.26 0.25
0.01 0.01 0.04 0.07 0.14 0.17 0.11 0.10 0.13 0.10 0.09 0.08 0.07 0.07 0.08 0.06 0.07 0.04 0.02 0.03 0.04 0.06 0.07 0.08 0.14 0.22 0.26 0.27 0.28 0.28 0.30 0.40 0.31 0.19 0.27 0.38 0.39 0.35 0.40 0.47 0.35 0.28 0.26
0.02 0.04 0.09 0.13 0.20 0.22 0.13 0.14 0.21 0.15 0.13 0.08 0.05 0.06 0.07 0.05 0.06 0.02 0.02 0.04 0.04 0.04 0.05 0.07 0.11 0.17 0.22 0.26 0.27 0.31 0.37 0.31 0.15 0.21 0.27 0.38 0.38 0.38 0.36 0.36 0.35 0.32 0.27
0.02 0.04 0.09 0.17 0.19 0.20 0.17 0.21 0.30 0.24 0.18 0.10 0.05 0.06 0.06 0.05 0.05 0.03 0.04 0.03 0.03 0.03 0.03 0.04 0.06 0.10 0.13 0.18 0.22 0.27 0.28 0.21 0.21 0.23 0.24 0.38 0.39 0.36 0.30 0.31 0.38 0.33 0.28
0.02 0.03 0.09 0.13 0.13 0.17 0.20 0.26 0.34 0.34 0.23 0.10 0.05 0.06 0.05 0.05 0.04 0.04 0.05 0.04 0.03 0.01 0.01 0.02 0.04 0.05 0.05 0.08 0.11 0.15 0.20 0.19 0.18 0.13 0.16 0.29 0.30 0.30 0.26 0.26 0.32 0.31 0.34
0.04 0.03 0.08 0.09 0.09 0.13 0.22 0.23 0.35 0.47 0.30 0.13 0.06 0.07 0.07 0.05 0.04 0.04 0.03 0.02 0.01 0.01 0.00 0.01 0.02 0.03 0.03 0.03 0.06 0.11 0.16 0.15 0.11 0.07 0.08 0.20 0.25 0.24 0.29 0.26 0.27 0.33 0.37
0.03 0.02 0.02 0.03 0.07 0.13 0.16 0.23 0.34 0.63 0.54 0.21 0.11 0.08 0.08 0.05 0.04 0.04 0.01 0.01 0.01 0.01 0.00 0.00 0.00 0.01 0.01 0.02 0.06 0.11 0.12 0.09 0.06 0.02 0.03 0.10 0.17 0.13 0.15 0.18 0.20 0.23 0.29
0.01 0.01 0.01 0.02 0.03 0.07 0.13 0.22 0.37 0.58 0.62 0.35 0.18 0.10 0.07 0.06 0.10 0.07 0.02 0.01 0.01 0.00 0.00 0.00 0.00 0.00 0.01 0.02 0.05 0.05 0.04 0.05 0.05 0.02 0.01 0.04 0.05 0.04 0.04 0.05 0.07 0.09 0.14
0.09 0.05 0.03 0.03 0.04 0.04 0.06 0.18 0.26 0.32 0.41 0.28 0.27 0.16 0.13 0.21 0.17 0.06 0.02 0.01 0.01 0.00 0.00 0.00 0.00 0.00 0.00 0.00 0.01 0.01 0.02 0.03 0.04 0.03 0.02 0.02 0.01 0.00 0.00 0.01 0.01 0.02 0.03
0.24 0.19 0.11 0.07 0.05 0.06 0.13 0.19 0.24 0.33 0.39 0.41 0.36 0.21 0.23 0.25 0.12 0.02 0.02 0.02 0.02 0.01 0.00 0.00 0.00 0.00 0.00 0.00 0.00 0.00 0.00 0.00 0.02 0.02 0.02 0.01 0.00 0.00 0.00 0.00 0.00 0.00 0.00
0.33 0.37 0.29 0.17 0.14 0.11 0.14 0.20 0.25 0.34 0.40 0.37 0.25 0.14 0.16 0.18 0.10 0.03 0.02 0.02 0.02 0.02 0.01 0.00 0.00 0.00 0.00 0.00 0.00 0.00 0.00 0.00 0.01 0.01 0.03 0.02 0.01 0.01 0.01 0.01 0.01 0.00 0.00
0.37 0.43 0.44 0.35 0.27 0.24 0.23 0.24 0.21 0.38 0.43 0.41 0.33 0.13 0.16 0.14 0.10 0.06 0.02 0.01 0.01 0.01 0.01 0.00 0.00 0.00 0.00 0.01 0.01 0.00 0.00 0.00 0.00 0.01 0.03 0.03 0.04 0.05 0.03 0.04 0.04 0.01 0.01
0.35 0.40 0.44 0.48 0.46 0.40 0.37 0.35 0.32 0.32 0.36 0.40 0.28 0.13 0.17 0.16 0.10 0.09 0.05 0.03 0.02 0.01 0.01 0.00 0.00 0.00 0.01 0.01 0.01 0.00 0.00 0.00 0.00 0.00 0.03 0.03 0.05 0.09 0.08 0.11 0.10 0.06 0.05
0.37 0.40 0.43 0.50 0.57 0.57 0.56 0.61 0.51 0.45 0.47 0.40 0.30 0.21 0.18 0.18 0.14 0.13 0.11 0.07 0.05 0.04 0.03 0.01 0.00 0.00 0.00 0.01 0.00 0.00 0.00 0.00 0.00 0.00 0.01 0.02 0.04 0.10 0.17 0.22 0.23 0.19 0.14
0.36 0.36 0.38 0.42 0.46 0.52 0.58 0.65 0.68 0.65 0.64 0.56 0.50 0.38 0.27 0.27 0.27 0.22 0.17 0.16 0.14 0.10 0.07 0.04 0.01 0.00 0.00 0.00 0.00 0.00 0.00 0.00 0.00 0.00 0.00 0.00 0.01 0.05 0.12 0.19 0.29 0.36 0.32
0.35 0.32 0.30 0.32 0.32 0.35 0.42 0.52 0.63 0.67 0.72 0.73 0.68 0.56 0.52 0.52 0.46 0.38 0.36 0.37 0.37 0.30 0.18 0.09 0.04 0.01 0.01 0.01 0.00 0.00 0.00 0.00 0.00 0.00 0.00 0.00 0.00 0.00 0.01 0.04 0.11 0.14 0.22
0.29 0.30 0.30 0.31 0.30 0.26 0.30 0.43 0.52 0.56 0.61 0.74 0.76 0.77 0.99 1.03 0.83 0.70 0.67 0.59 0.52 0.45 0.37 0.28 0.17 0.09 0.04 0.02 0.00 0.00 0.00 0.00 0.00 0.00 0.00 0.00 0.00 0.00 0.00 0.00 0.02 0.02 0.08
0.15 0.14 0.18 0.24 0.30 0.28 0.24 0.29 0.40 0.47 0.58 0.68 0.83 0.88 1.06 1.12 1.03 0.99 0.92 0.83 0.69 0.58 0.55 0.53 0.45 0.30 0.17 0.07 0.07 0.06 0.03 0.01 0.00 0.00 0.00 0.00 0.00 0.00 0.00 0.00 0.02 0.03 0.03
0.05 0.06 0.10 0.15 0.23 0.30 0.32 0.37 0.50 0.66 0.76 0.83 0.95 0.99 1.08 1.03 1.00 0.93 1.02 1.07 0.93 0.86 0.83 0.84 0.75 0.61 0.40 0.21 0.28 0.36 0.22 0.13 0.04 0.01 0.00 0.00 0.00 0.00 0.00 0.00 0.00 0.00 0.01
0.02 0.05 0.10 0.18 0.31 0.47 0.62 0.82 1.06 1.32 1.42 1.30 1.16 1.21 1.32 1.34 1.26 1.16 1.18 1.26 1.11 1.01 0.96 0.94 0.86 0.92 0.83 0.57 0.48 0.63 0.48 0.36 0.29 0.07 0.01 0.00 0.00 0.00 0.00 0.00 0.00 0.00 0.00
0.09 0.16 0.26 0.38 0.53 0.67 0.86 1.07 1.32 1.54 1.71 1.72 1.73 1.76 1.72 1.63 1.49 1.33 1.25 1.21 1.16 1.10 0.98 0.84 0.88 1.06 1.23 1.08 0.85 0.70 0.55 0.42 0.37 0.24 0.08 0.01 0.00 0.01 0.00 0.00 0.00 0.00 0.01
0.26 0.37 0.48 0.69 0.83 0.93 0.96 1.05 1.26 1.37 1.42 1.55 1.70 1.77 1.74 1.62 1.48 1.34 1.21 1.12 1.10 1.09 1.03 0.98 1.02 1.13 1.27 1.37 1.25 0.95 0.71 0.56 0.37 0.32 0.26 0.14 0.05 0.01 0.01 0.00 0.00 0.00 0.00
0.53 0.76 0.89 0.98 1.04 0.99 0.95 0.95 1.08 1.22 1.30 1.39 1.51 1.56 1.47 1.33 1.29 1.26 1.20 1.07 0.97 0.92 0.91 0.97 1.11 1.12 1.16 1.24 1.20 0.98 0.79 0.66 0.60 0.53 0.41 0.35 0.25 0.07 0.01 0.01 0.00 0.00 0.00